1505984400.44,64232,14.19,73078.5,-2.33,-3.15,-3.23,0,*56
1505984401.66,64233,14.19,73090.5,-2.33,-3.23,-3.15,0,*57
1505984402.88,64234,14.13,73098.5,-2.33,-3.15,-3.23,0,*50
1505984404.09,64235,14.19,73082.8,-2.33,-3.23,-3.15,0,*51
1505984405.32,64236,14.19,73094.3,-2.33,-3.35,-3.35,0,*57
1505984406.55,64237,14.19,73092.8,-2.33,-3.23,-3.27,0,*52
1505984407.74,64238,14.19,73088.0,-2.35,-3.23,-3.15,0,*5A
1505984408.96,64239,14.19,73098.5,-2.33,-3.15,-3.23,0,*5D
1505984410.18,64240,14.19,73090.8,-2.33,-3.23,-3.15,0,*53
1505984411.4,64241,14.19,73086.8,-2.33,-3.15,-3.15,0,*57
1505984412.62,64242,14.19,73080.0,-2.33,-3.07,-3.11,0,*53
1505984413.85,64243,14.19,73070.0,-2.33,-3.11,-3.11,0,*55
1505984415.04,64244,14.19,73084.5,-2.35,-3.11,-3.11,0,*54
1505984416.24,64245,14.19,73074.3,-2.35,-3.11,-3.07,0,*52
1505984417.44,64246,14.19,73086.5,-2.35,-3.07,-3.11,0,*51
1505984418.64,64247,14.13,73090.8,-2.35,-3.11,-3.11,0,*57
1505984419.84,64248,14.19,73080.8,-2.35,-3.11,-3.11,0,*58
1505984421.04,64249,14.19,73078.5,-2.35,-3.11,-3.11,0,*59
1505984422.26,64250,14.19,73096.0,-2.33,-3.11,-3.11,0,*57
1505984423.46,64251,14.19,73086.3,-2.35,-3.11,-3.11,0,*50
1505984424.66,64252,14.19,73084.3,-2.35,-3.11,-3.11,0,*53
1505984425.85,64253,14.19,73078.3,-2.35,-3.07,-3.11,0,*55
1505984427.06,64254,14.19,73076.8,-2.35,-3.07,-2.95,0,*5F
1505984428.26,64255,14.13,73076.0,-2.35,-3.07,-3.07,0,*54
1505984429.48,64256,14.19,73066.3,-2.37,-3.15,-3.19,0,*59
1505984430.68,64257,14.19,73076.8,-2.35,-3.19,-3.27,0,*5B
1505984431.91,64258,14.19,73082.3,-2.37,-3.27,-3.19,0,*56
1505984433.1,64259,14.19,73060.8,-2.35,-3.15,-3.15,0,*58
1505984434.3,64260,14.19,73082.0,-2.35,-3.15,-3.11,0,*56
1505984435.53,64261,14.19,73078.8,-2.37,-3.19,-3.15,0,*5D
1505984436.73,64262,14.19,73074.3,-2.35,-3.15,-3.11,0,*54
1505984437.92,64263,14.19,73078.5,-2.35,-3.23,-3.15,0,*54
1505984439.14,64264,14.19,73074.3,-2.33,-3.27,-3.23,0,*54
1505984440.34,64265,14.19,73066.0,-2.35,-3.15,-3.15,0,*57
1505984441.54,64266,14.19,73068.8,-2.35,-3.15,-3.15,0,*54
1505984442.76,64267,14.19,73062.5,-2.37,-3.19,-3.19,0,*57
1505984443.98,64268,14.19,73064.5,-2.37,-3.15,-3.19,0,*54
1505984445.18,64269,14.19,73058.0,-2.35,-3.11,-3.15,0,*5F
1505984446.4,64270,14.19,73072.0,-2.37,-3.15,-3.15,0,*51
1505984447.62,64271,14.19,73084.5,-2.37,-3.15,-3.15,0,*50
1505984448.82,64272,14.19,73030.0,-2.35,-3.15,-3.23,0,*54
1505984450.05,64273,14.19,73036.0,-2.37,-3.39,-3.39,0,*52
1505984451.3,64274,14.19,73040.8,-2.37,-3.43,-3.39,0,*58
1505984452.52,64275,14.19,73072.8,-2.37,-3.39,-3.39,0,*54
1505984453.75,64276,14.13,73064.5,-2.37,-3.39,-3.31,0,*5F
1505984454.95,64277,14.13,73080.8,-2.35,-3.27,-3.23,0,*50
1505984456.17,64278,14.19,73046.5,-2.37,-3.19,-3.19,0,*59
1505984457.36,64279,14.19,73066.5,-2.35,-3.19,-3.19,0,*5A
1505984458.59,64280,14.19,73048.8,-2.37,-3.19,-3.27,0,*53
1505984459.82,64281,14.13,73048.0,-2.37,-3.27,-3.27,0,*5F
1505984461.05,64282,14.19,73046.8,-2.37,-3.27,-3.19,0,*51
1505984462.27,64283,14.13,73060.5,-2.37,-3.27,-3.19,0,*50
1505984463.5,64284,14.19,73048.5,-2.37,-3.27,-3.27,0,*5A
1505984464.73,64285,14.19,73058.8,-2.37,-3.19,-3.27,0,*56
1505984465.95,64286,14.19,73072.8,-2.37,-3.19,-3.19,0,*58
1505984467.18,64287,14.19,73092.3,-2.37,-3.27,-3.19,0,*54
1505984468.41,64288,14.19,73060.3,-2.37,-3.27,-3.27,0,*56
1505984469.62,64289,14.19,73082.3,-2.39,-3.35,-3.35,0,*59
1505984470.82,64290,14.19,73088.3,-2.39,-3.35,-3.35,0,*51
1505984472.05,64291,14.19,73086.3,-2.39,-3.43,-3.35,0,*51
1505984473.3,64292,14.19,73078.3,-2.39,-3.43,-3.43,0,*53
1505984474.53,64293,14.19,73072.8,-2.39,-3.43,-3.35,0,*53
1505984475.75,64294,14.19,73070.8,-2.39,-3.35,-3.43,0,*54
1505984477.0,64295,14.19,73068.8,-2.39,-3.43,-3.43,0,*54
1505984478.23,64296,14.13,73074.3,-2.41,-3.35,-3.35,0,*58
1505984479.42,64297,14.13,73082.8,-2.39,-3.23,-3.31,0,*55
1505984480.63,64298,14.19,73072.0,-2.41,-3.23,-3.23,0,*56
1505984481.82,64299,14.13,73084.3,-2.39,-3.23,-3.23,0,*58
1505984483.04,64300,14.13,73080.8,-2.41,-3.19,-3.23,0,*5F
1505984484.24,64301,14.13,73080.5,-2.39,-3.19,-3.15,0,*54
1505984485.46,64302,14.19,73088.3,-2.41,-3.15,-3.19,0,*58
1505984486.68,64303,14.13,73100.3,-2.41,-3.19,-3.15,0,*59
1505984487.89,64304,14.13,73092.3,-2.41,-3.19,-3.19,0,*52
1505984489.11,64305,14.19,73076.8,-2.41,-3.19,-3.19,0,*53
1505984490.33,64306,14.13,73082.8,-2.41,-3.19,-3.19,0,*50
1505984491.53,64307,14.19,73098.0,-2.39,-3.19,-3.19,0,*5E
1505984492.75,64308,14.19,73080.8,-2.41,-3.19,-3.19,0,*5E
1505984493.94,64309,14.19,73076.5,-2.39,-3.19,-3.19,0,*50
1505984495.16,64310,14.13,73070.3,-2.41,-3.15,-3.15,0,*57
1505984496.39,64311,14.19,73068.5,-2.41,-3.15,-3.15,0,*56
1505984497.6,64312,14.19,73076.0,-2.41,-3.19,-3.19,0,*55
1505984498.8,64313,14.19,73082.0,-2.39,-3.19,-3.15,0,*57
1505984500.02,64314,14.13,73084.0,-2.41,-3.23,-3.19,0,*5A
1505984501.21,64315,14.19,73082.3,-2.39,-3.23,-3.23,0,*5D
1505984502.42,64316,14.13,73078.0,-2.41,-3.23,-3.23,0,*51
1505984503.62,64317,14.19,73096.0,-2.39,-3.31,-3.23,0,*5C
1505984504.81,64318,14.13,73094.5,-2.39,-3.23,-3.23,0,*50
1505984506.02,64319,14.13,73088.0,-2.41,-3.23,-3.23,0,*5E
1505984507.24,64320,14.19,73084.8,-2.41,-3.19,-3.23,0,*5D
1505984508.45,64321,14.13,73062.0,-2.41,-3.19,-3.23,0,*5C
1505984509.67,64322,14.19,73088.3,-2.41,-3.19,-3.19,0,*56
1505984510.89,64323,14.19,73112.8,-2.41,-3.15,-3.15,0,*57
1505984512.09,64324,14.13,73072.3,-2.39,-3.31,-3.31,0,*5F
1505984513.3,64325,14.13,73040.3,-2.41,-3.23,-3.23,0,*51
1505984514.52,64326,14.19,73054.3,-2.41,-3.31,-3.23,0,*51
1505984515.73,64327,14.13,73054.3,-2.41,-3.23,-3.23,0,*53
1505984516.93,64328,14.19,73052.5,-2.39,-3.31,-3.23,0,*50
1505984518.13,64329,14.19,73086.0,-2.39,-3.31,-3.31,0,*52
1505984519.35,64330,14.13,73080.0,-2.41,-3.23,-3.31,0,*56
1505984520.57,64331,14.13,73058.3,-2.41,-3.31,-3.31,0,*54
1505984521.79,64332,14.19,73058.5,-2.41,-3.35,-3.31,0,*53
1505984523.02,64333,14.19,73072.8,-2.41,-3.31,-3.31,0,*56
1505984524.23,64334,14.19,73086.3,-2.41,-3.23,-3.31,0,*52
1505984525.44,64335,14.13,73092.3,-2.41,-3.23,-3.23,0,*50
1505984526.67,64336,14.19,73082.0,-2.41,-3.31,-3.31,0,*53
1505984527.88,64337,14.13,73082.3,-2.41,-3.23,-3.35,0,*55
1505984529.08,64338,14.19,73090.0,-2.39,-3.31,-3.23,0,*51
1505984530.28,64339,14.19,73078.3,-2.43,-3.23,-3.27,0,*5A
1505984531.49,64340,14.19,73086.8,-2.41,-3.23,-3.23,0,*52
1505984532.7,64341,14.19,73110.0,-2.41,-3.23,-3.23,0,*53
1505984533.92,64342,14.19,73108.3,-2.41,-3.23,-3.23,0,*50
1505984535.13,64343,14.13,73092.5,-2.41,-3.23,-3.31,0,*52
1505984536.34,64344,14.19,73098.8,-2.41,-3.23,-3.23,0,*56
1505984537.56,64345,14.13,73102.5,-2.41,-3.19,-3.15,0,*5B
1505984538.78,64346,14.13,73102.3,-2.41,-3.15,-3.19,0,*58
1505984540.0,64347,14.19,73106.5,-2.41,-3.07,-3.15,0,*56
1505984541.22,64348,14.19,73106.5,-2.41,-3.03,-3.07,0,*5E
1505984542.45,64349,14.19,73094.5,-2.41,-3.15,-3.07,0,*58
1505984543.67,64350,14.13,73086.5,-2.41,-3.07,-3.03,0,*57
1505984544.89,64351,14.19,73078.8,-2.41,-3.03,-3.03,0,*52
1505984546.11,64352,14.13,73082.8,-2.41,-2.91,-2.95,0,*55
1505984547.33,64353,14.19,73102.5,-2.41,-3.07,-3.03,0,*54
1505984548.56,64354,14.13,73086.5,-2.41,-3.03,-3.07,0,*53
1505984549.76,64355,14.19,73070.3,-2.39,-3.07,-3.15,0,*5A
1505984550.97,64356,14.13,73062.0,-2.41,-3.07,-3.15,0,*56
1505984552.18,64357,14.13,73078.3,-2.39,-3.07,-3.07,0,*5B
1505984553.38,64358,14.13,73098.5,-2.39,-3.03,-3.03,0,*54
1505984554.58,64359,14.19,73092.0,-2.39,-3.07,-3.07,0,*55
1505984555.78,64360,14.13,73064.5,-2.39,-3.15,-3.19,0,*53
1505984557.0,64361,14.19,73070.8,-2.41,-3.19,-3.19,0,*51
1505984558.19,64362,14.19,73094.8,-2.39,-3.23,-3.23,0,*5D
1505984559.38,64363,14.13,73082.3,-2.39,-3.23,-3.23,0,*5C
1505984560.57,64364,14.13,73104.0,-2.39,-3.19,-3.23,0,*52
1505984561.77,64365,14.13,73082.5,-2.39,-3.19,-3.23,0,*53
1505984562.96,64366,14.19,73078.3,-2.39,-3.23,-3.23,0,*59
1505984564.15,64367,14.19,73076.8,-2.39,-3.23,-3.23,0,*58
1505984565.36,64368,14.19,73082.3,-2.41,-3.23,-3.23,0,*58
1505984566.58,64369,14.19,73092.0,-2.41,-3.23,-3.19,0,*50
1505984567.8,64370,14.13,73074.5,-2.41,-3.15,-3.19,0,*5D
1505984568.99,64371,14.13,73080.5,-2.39,-3.23,-3.23,0,*5F
1505984570.21,64372,14.19,73078.3,-2.41,-3.19,-3.23,0,*5A
1505984571.4,64373,14.19,73078.0,-2.39,-3.19,-3.19,0,*5D
1505984572.62,64374,14.19,73066.3,-2.41,-3.19,-3.19,0,*55
1505984573.84,64375,14.13,73088.0,-2.41,-3.15,-3.19,0,*58
1505984575.06,64376,14.13,73082.8,-2.41,-3.19,-3.19,0,*57
1505984576.26,64377,14.13,73044.0,-2.39,-3.23,-3.31,0,*5A
1505984577.48,64378,14.19,73046.5,-2.41,-3.31,-3.31,0,*59
1505984578.69,64379,14.13,73076.0,-2.41,-3.23,-3.23,0,*58
1505984579.9,64380,14.19,73070.5,-2.41,-3.23,-3.23,0,*5E
1505984581.11,64381,14.19,73048.8,-2.41,-3.23,-3.23,0,*5F
1505984582.33,64382,14.13,73066.0,-2.41,-3.23,-3.23,0,*5C
1505984583.54,64383,14.13,73058.5,-2.41,-3.19,-3.23,0,*54
1505984584.75,64384,14.13,73050.5,-2.41,-3.19,-3.23,0,*53
1505984585.95,64385,14.13,73036.8,-2.39,-3.19,-3.23,0,*5D
1505984587.16,64386,14.19,73068.0,-2.41,-3.19,-3.23,0,*51
1505984588.38,64387,14.19,73088.0,-2.41,-3.19,-3.23,0,*50
1505984589.58,64388,14.19,73048.5,-2.39,-3.31,-3.35,0,*5D
1505984590.78,64389,14.13,73066.8,-2.39,-3.31,-3.23,0,*5B
1505984592.01,64390,14.13,73070.0,-2.41,-3.31,-3.35,0,*5B
1505984593.22,64391,14.13,73066.0,-2.41,-3.23,-3.23,0,*5E
1505984594.43,64392,14.13,73066.0,-2.41,-3.23,-3.23,0,*5D
1505984595.64,64393,14.19,73048.8,-2.43,-3.27,-3.27,0,*5E
1505984596.82,64394,14.13,73042.8,-2.43,-3.23,-3.23,0,*59
1505984598.02,64395,14.13,73070.8,-2.43,-3.19,-3.19,0,*58
1505984599.21,64396,14.13,73080.0,-2.43,-3.19,-3.23,0,*52
1505984600.41,64397,14.19,73076.8,-2.43,-3.19,-3.19,0,*5A
1505984601.59,64398,14.13,73086.5,-2.43,-3.23,-3.23,0,*55
1505984602.78,64399,14.19,73090.0,-2.45,-3.23,-3.19,0,*5B
1505984604.0,64400,14.13,73082.5,-2.41,-3.19,-3.19,0,*51
1505984605.22,64401,14.19,73064.5,-2.41,-3.07,-3.07,0,*50
1505984606.42,64402,14.13,73058.5,-2.39,-3.03,-3.07,0,*58
1505984607.65,64403,14.13,73054.3,-2.41,-3.07,-3.07,0,*52
1505984608.84,64404,14.13,73076.0,-2.39,-3.07,-3.15,0,*59
1505984610.06,64405,14.13,73074.5,-2.41,-3.15,-3.15,0,*54
1505984611.28,64406,14.19,73090.3,-2.41,-3.19,-3.15,0,*5B
1505984612.5,64407,14.19,73106.8,-2.41,-3.15,-3.15,0,*56
1505984613.72,64408,14.13,73088.5,-2.41,-3.19,-3.19,0,*59
1505984614.94,64409,14.13,73076.3,-2.41,-3.31,-3.23,0,*5B
1505984616.15,64410,14.13,73076.0,-2.41,-3.23,-3.23,0,*50
1505984617.37,64411,14.13,73082.0,-2.41,-3.15,-3.15,0,*51
1505984618.59,64412,14.19,73096.8,-2.41,-3.15,-3.15,0,*52
1505984619.81,64413,14.13,73084.8,-2.41,-3.15,-3.15,0,*53
1505984621.03,64414,14.13,73072.3,-2.41,-3.07,-3.15,0,*57
1505984622.25,64415,14.19,73074.0,-2.41,-3.07,-3.07,0,*55
1505984623.47,64416,14.13,73088.5,-2.41,-3.15,-3.15,0,*56
1505984624.67,64417,14.13,73092.8,-2.39,-3.15,-3.19,0,*54
1505984625.87,64418,14.13,73080.3,-2.39,-3.23,-3.23,0,*57
1505984627.09,64419,14.19,73084.5,-2.41,-3.31,-3.23,0,*5A
1505984628.3,64420,14.13,73082.5,-2.41,-3.23,-3.23,0,*53
1505984629.52,64421,14.13,73092.8,-2.41,-3.15,-3.19,0,*5E
1505984630.74,64422,14.13,73082.5,-2.41,-3.07,-3.07,0,*51
1505984631.96,64423,14.19,73072.3,-2.41,-3.07,-3.07,0,*50
1505984633.18,64424,14.19,73116.8,-2.41,-3.07,-3.07,0,*57
1505984634.4,64425,14.19,73084.3,-2.41,-3.15,-3.19,0,*5A
1505984635.62,64426,14.13,73082.5,-2.41,-3.15,-3.19,0,*59
1505984636.84,64427,14.19,73086.5,-2.41,-3.19,-3.19,0,*54
1505984638.06,64428,14.13,73080.3,-2.41,-3.19,-3.19,0,*5B
1505984639.28,64429,14.13,73080.0,-2.41,-3.19,-3.19,0,*5A
1505984640.49,64430,14.13,73078.0,-2.41,-3.23,-3.31,0,*51
1505984641.71,64431,14.13,73076.5,-2.41,-3.23,-3.23,0,*53
1505984642.92,64432,14.19,73090.3,-2.41,-3.19,-3.23,0,*59
1505984644.14,64433,14.13,73094.3,-2.41,-3.19,-3.23,0,*58
1505984645.36,64434,14.13,73096.0,-2.41,-3.15,-3.15,0,*56
1505984646.58,64435,14.13,73094.8,-2.41,-3.15,-3.15,0,*57
1505984647.79,64436,14.13,73090.3,-2.41,-3.19,-3.19,0,*54
1505984649.01,64437,14.13,73072.5,-2.41,-3.19,-3.19,0,*55
1505984650.23,64438,14.13,73070.5,-2.41,-3.15,-3.15,0,*5A
1505984651.43,64439,14.19,73066.3,-2.43,-3.19,-3.11,0,*51
1505984652.62,64440,14.19,73070.3,-2.43,-3.23,-3.19,0,*5E
1505984653.84,64441,14.13,73084.8,-2.41,-3.15,-3.15,0,*54
1505984655.07,64442,14.13,73080.0,-2.41,-3.15,-3.15,0,*57
1505984656.29,64443,14.13,73078.8,-2.41,-3.15,-3.19,0,*5A
1505984657.51,64444,14.19,73078.8,-2.41,-3.15,-3.15,0,*51
1505984658.73,64445,14.13,73102.0,-2.41,-3.15,-3.15,0,*50
1505984659.95,64446,14.13,73094.0,-2.41,-3.07,-3.07,0,*53
1505984661.17,64447,14.13,73082.5,-2.41,-3.07,-3.07,0,*52
1505984662.39,64448,14.13,73074.3,-2.41,-3.07,-3.03,0,*59
1505984663.61,64449,14.13,73078.3,-2.41,-3.15,-3.19,0,*50
1505984664.83,64450,14.13,73090.5,-2.41,-3.19,-3.19,0,*54
1505984666.05,64451,14.13,73076.8,-2.41,-3.15,-3.15,0,*55
1505984667.28,64452,14.13,73086.8,-2.41,-3.15,-3.15,0,*56
1505984668.47,64453,14.13,73080.0,-2.39,-3.07,-3.15,0,*5B
1505984669.67,64454,14.19,73094.5,-2.43,-3.23,-3.11,0,*53
1505984670.89,64455,14.13,73090.5,-2.41,-3.19,-3.15,0,*5D
1505984672.11,64456,14.13,73092.5,-2.41,-3.15,-3.15,0,*52
1505984673.33,64457,14.13,73092.3,-2.41,-3.03,-3.07,0,*57
1505984674.55,64458,14.19,73090.8,-2.41,-3.19,-3.07,0,*53
1505984675.77,64459,14.19,73088.0,-2.41,-3.19,-3.19,0,*5D
1505984676.99,64460,14.13,73090.3,-2.41,-3.15,-3.19,0,*5B
1505984678.21,64461,14.13,73084.8,-2.41,-3.07,-3.15,0,*55
1505984679.43,64462,14.13,73088.5,-2.41,-3.03,-3.03,0,*55
1505984680.63,64463,14.13,73082.5,-2.39,-3.03,-3.03,0,*5B
1505984681.86,64464,14.13,73090.3,-2.41,-3.07,-2.95,0,*59
1505984683.08,64465,14.13,73092.3,-2.41,-3.07,-3.03,0,*56
1505984684.31,64466,14.19,73088.8,-2.41,-2.95,-3.07,0,*5B
1505984685.53,64467,14.19,73094.3,-2.41,-3.07,-3.07,0,*50
1505984686.75,64468,14.13,73094.0,-2.41,-3.07,-3.03,0,*5B
1505984687.96,64469,14.13,73082.0,-2.39,-3.03,-2.95,0,*5F
1505984689.18,64470,14.13,73094.3,-2.41,-3.03,-3.03,0,*56
1505984690.4,64471,14.13,73094.3,-2.41,-3.03,-3.07,0,*53
1505984691.63,64472,14.19,73098.8,-2.41,-3.07,-3.07,0,*54
1505984692.83,64473,14.13,73102.3,-2.39,-3.07,-3.07,0,*5A
1505984694.02,64474,14.13,73094.3,-2.39,-3.07,-3.15,0,*5E
1505984695.23,64475,14.13,73090.8,-2.39,-3.15,-3.15,0,*5C
1505984696.42,64476,14.13,73112.5,-2.39,-3.19,-3.15,0,*53
1505984697.62,64477,14.13,73096.3,-2.39,-3.19,-3.19,0,*5E
1505984698.84,64478,14.13,73086.8,-2.41,-3.19,-3.19,0,*5E
1505984700.06,64479,14.13,73096.8,-2.41,-3.15,-3.19,0,*53
1505984701.26,64480,14.13,73098.3,-2.39,-3.19,-3.19,0,*56
1505984702.46,64481,14.13,73102.0,-2.39,-3.15,-3.15,0,*57
1505984703.69,64482,14.13,73102.5,-2.41,-3.15,-3.03,0,*5C
1505984704.89,64483,14.13,73098.8,-2.39,-3.15,-3.15,0,*55
1505984706.11,64484,14.13,73096.5,-2.41,-3.19,-3.19,0,*5D
1505984707.32,64485,14.13,73080.5,-2.41,-3.19,-3.19,0,*5C
1505984708.54,64486,14.19,73084.8,-2.41,-3.19,-3.19,0,*5F
1505984709.76,64487,14.13,73090.0,-2.41,-3.19,-3.19,0,*5E
1505984710.98,64488,14.13,73106.0,-2.41,-3.19,-3.15,0,*5D
1505984712.2,64489,14.13,73110.0,-2.41,-3.15,-3.15,0,*50
1505984713.42,64490,14.13,73092.5,-2.41,-3.07,-3.07,0,*58
1505984714.64,64491,14.13,73088.3,-2.41,-3.07,-3.07,0,*59
1505984715.86,64492,14.13,73088.0,-2.41,-3.03,-3.03,0,*5A
1505984717.09,64493,14.13,73088.8,-2.41,-3.07,-3.07,0,*5B
1505984718.31,64494,14.13,73100.8,-2.41,-3.07,-3.07,0,*5C
1505984719.53,64495,14.13,73096.5,-2.41,-3.07,-3.07,0,*5D
1505984720.75,64496,14.19,73088.3,-2.41,-3.15,-3.07,0,*5D
1505984721.98,64497,14.13,73080.8,-2.41,-3.07,-3.07,0,*5F
1505984723.2,64498,14.13,73080.3,-2.41,-3.03,-3.03,0,*50
1505984724.42,64499,14.13,73080.3,-2.41,-3.03,-3.03,0,*51
1505984725.64,64500,14.13,73086.5,-2.41,-3.07,-3.15,0,*53
1505984726.84,64501,14.13,73088.0,-2.39,-3.03,-3.15,0,*59
1505984728.06,64502,14.13,73092.8,-2.41,-3.15,-3.15,0,*52
1505984729.26,64503,14.13,73094.5,-2.39,-3.07,-3.15,0,*5F
1505984730.48,64504,14.13,73090.0,-2.41,-3.03,-3.07,0,*50
1505984731.7,64505,14.13,73090.5,-2.41,-3.07,-3.07,0,*55
1505984732.92,64506,14.13,73092.3,-2.41,-3.07,-3.07,0,*56
1505984734.14,64507,14.13,73086.0,-2.41,-3.03,-3.07,0,*53
1505984735.37,64508,14.13,73086.5,-2.41,-3.03,-3.03,0,*58
1505984736.59,64509,14.13,73088.5,-2.41,-3.07,-3.07,0,*59
1505984737.81,64510,14.13,73088.5,-2.41,-3.07,-3.03,0,*55
1505984739.03,64511,14.13,73102.8,-2.41,-3.03,-3.03,0,*50
1505984740.25,64512,14.13,73084.8,-2.41,-3.07,-3.07,0,*53
1505984741.46,64513,14.13,73096.8,-2.39,-3.07,-3.07,0,*5D
1505984742.68,64514,14.13,73088.5,-2.41,-3.07,-3.07,0,*55
1505984743.9,64515,14.13,73078.5,-2.41,-3.15,-3.19,0,*58
1505984745.1,64516,14.13,73072.8,-2.39,-3.15,-3.15,0,*58
1505984746.32,64517,14.13,73090.3,-2.41,-3.19,-3.15,0,*5A
1505984747.54,64518,14.13,73098.8,-2.41,-3.19,-3.19,0,*59
1505984748.75,64519,14.13,73086.5,-2.41,-3.19,-3.19,0,*58
1505984749.97,64520,14.13,73082.5,-2.41,-3.15,-3.19,0,*5E
1505984751.19,64521,14.13,73090.8,-2.41,-3.19,-3.19,0,*53
1505984752.4,64522,14.13,73088.0,-2.41,-3.23,-3.23,0,*50
1505984753.61,64523,14.13,73082.3,-2.41,-3.23,-3.23,0,*51
1505984754.84,64524,14.13,73084.8,-2.41,-3.31,-3.31,0,*56
1505984756.05,64525,14.13,73094.8,-2.41,-3.23,-3.23,0,*57
1505984757.26,64526,14.13,73088.0,-2.41,-3.23,-3.19,0,*5D
1505984758.47,64527,14.13,73090.3,-2.43,-3.27,-3.27,0,*57
1505984759.68,64528,14.13,73094.8,-2.43,-3.27,-3.27,0,*58
1505984760.87,64529,14.13,73094.5,-2.43,-3.27,-3.23,0,*5D
1505984762.09,64530,14.13,73098.8,-2.41,-3.15,-3.15,0,*53
1505984763.28,64531,14.13,73096.5,-2.43,-3.23,-3.19,0,*59
1505984764.47,64532,14.13,73092.8,-2.45,-3.23,-3.19,0,*5C
1505984765.66,64533,14.13,73096.0,-2.43,-3.23,-3.23,0,*52
1505984766.85,64534,14.13,73094.8,-2.43,-3.23,-3.23,0,*55
1505984768.04,64535,14.13,73084.3,-2.43,-3.23,-3.23,0,*54
1505984769.23,64536,14.13,73092.3,-2.43,-3.35,-3.23,0,*50
1505984770.44,64537,14.13,73092.5,-2.43,-3.27,-3.27,0,*56
1505984771.63,64538,14.13,73098.8,-2.43,-3.19,-3.19,0,*59
1505984772.82,64539,14.13,73100.0,-2.43,-3.19,-3.23,0,*51
1505984774.02,64540,14.13,73102.3,-2.43,-3.19,-3.19,0,*56
1505984775.21,64541,14.13,73104.5,-2.45,-3.19,-3.19,0,*51
1505984776.43,64542,14.13,73108.0,-2.41,-3.19,-3.15,0,*5A
1505984777.62,64543,14.13,73100.8,-2.45,-3.19,-3.23,0,*5A
1505984778.81,64544,14.13,73094.5,-2.43,-3.19,-3.19,0,*52
1505984780.0,64545,14.13,73094.5,-2.43,-3.19,-3.19,0,*53
1505984781.2,64546,14.13,73080.3,-2.43,-3.19,-3.23,0,*59
1505984782.39,64547,14.13,73098.3,-2.43,-3.23,-3.19,0,*58
1505984783.58,64548,14.13,73106.5,-2.43,-3.23,-3.23,0,*5E
1505984784.77,64549,14.13,73098.3,-2.43,-3.23,-3.19,0,*56
1505984785.99,64550,14.13,73106.8,-2.41,-3.15,-3.15,0,*55
1505984787.18,64551,14.13,73086.8,-2.43,-3.11,-3.19,0,*5E
1505984788.38,64552,14.13,73096.5,-2.43,-3.11,-3.11,0,*55
1505984789.58,64553,14.13,73060.8,-2.43,-3.11,-3.11,0,*54
1505984790.77,64554,14.13,73048.5,-2.45,-3.23,-3.23,0,*55
1505984791.96,64555,14.13,73058.0,-2.45,-3.35,-3.35,0,*54
1505984793.16,64556,14.13,73066.5,-2.45,-3.35,-3.35,0,*57
1505984794.36,64557,14.13,73058.0,-2.43,-3.35,-3.35,0,*50
1505984795.57,64558,14.13,73052.8,-2.43,-3.27,-3.35,0,*5C
1505984796.76,64559,14.13,73060.8,-2.45,-3.39,-3.35,0,*54
1505984797.96,64560,14.13,73066.3,-2.45,-3.35,-3.35,0,*52
1505984799.16,64561,14.13,73064.3,-2.45,-3.27,-3.39,0,*5C
1505984800.36,64562,14.13,73066.8,-2.45,-3.27,-3.35,0,*53
1505984801.56,64563,14.13,73058.0,-2.45,-3.27,-3.27,0,*51
1505984802.75,64564,14.13,73066.3,-2.45,-3.23,-3.19,0,*5F
1505984803.94,64565,14.13,73078.3,-2.45,-3.19,-3.19,0,*57
1505984805.12,64566,14.13,73068.5,-2.45,-3.23,-3.23,0,*54
1505984806.31,64567,14.13,73074.5,-2.45,-3.23,-3.23,0,*55
1505984807.49,64568,14.13,73078.5,-2.45,-3.23,-3.23,0,*5A
1505984808.68,64569,14.13,73070.5,-2.45,-3.19,-3.23,0,*52
1505984809.86,64570,14.13,73058.0,-2.45,-3.23,-3.23,0,*53
1505984811.05,64571,14.13,73090.0,-2.45,-3.35,-3.23,0,*55
1505984812.25,64572,14.13,73070.3,-2.45,-3.27,-3.27,0,*51
1505984813.46,64573,14.13,73082.0,-2.45,-3.35,-3.27,0,*53
1505984814.69,64574,14.13,73058.5,-2.49,-3.55,-3.55,0,*5B
1505984815.92,64575,14.13,73066.0,-2.49,-3.55,-3.43,0,*5D
1505984817.12,64576,14.13,73050.5,-2.49,-3.39,-3.39,0,*59
1505984818.31,64577,14.13,73042.8,-2.49,-3.31,-3.31,0,*58
1505984819.5,64578,14.13,73048.5,-2.49,-3.27,-3.31,0,*50
1505984820.69,64579,14.13,73054.0,-2.49,-3.27,-3.31,0,*51
1505984821.89,64580,14.13,73064.5,-2.49,-3.27,-3.31,0,*57
1505984823.08,64581,14.13,73060.8,-2.49,-3.27,-3.31,0,*56
1505984824.27,64582,14.13,73048.5,-2.49,-3.27,-3.31,0,*55
1505984825.46,64583,14.13,73052.8,-2.49,-3.23,-3.31,0,*50
1505984826.65,64584,14.13,73072.3,-2.49,-3.27,-3.27,0,*54
1505984827.85,64585,14.13,73062.0,-2.49,-3.27,-3.27,0,*55
1505984829.08,64586,14.13,73062.8,-2.51,-3.31,-3.27,0,*58
1505984830.27,64587,14.13,73078.3,-2.49,-3.31,-3.31,0,*57
1505984831.46,64588,14.13,73078.3,-2.49,-3.31,-3.31,0,*58
1505984832.65,64589,14.13,73062.5,-2.49,-3.27,-3.31,0,*5E
1505984833.85,64590,14.13,73054.5,-2.49,-3.27,-3.27,0,*51
1505984835.03,64591,14.13,73064.5,-2.49,-3.23,-3.23,0,*50
1505984836.25,64592,14.13,73070.3,-2.51,-3.15,-3.15,0,*5A
1505984837.44,64593,14.13,73088.0,-2.49,-3.15,-3.15,0,*52
1505984838.62,64594,14.13,73074.0,-2.49,-3.23,-3.15,0,*50
1505984839.81,64595,14.13,73088.8,-2.49,-3.23,-3.23,0,*54
1505984841.0,64596,14.13,73082.3,-2.49,-3.23,-3.27,0,*53
1505984842.18,64597,14.13,73070.5,-2.49,-3.15,-3.23,0,*53
1505984843.37,64598,14.13,73080.5,-2.49,-3.15,-3.23,0,*5C
1505984844.56,64599,14.13,73080.0,-2.49,-3.11,-3.11,0,*58
1505984845.75,64600,14.13,73076.5,-2.49,-3.15,-3.15,0,*5B
1505984846.93,64601,14.13,73090.8,-2.49,-3.23,-3.23,0,*5A
1505984848.13,64602,14.13,73090.0,-2.49,-3.27,-3.27,0,*59
1505984849.33,64603,14.13,73082.8,-2.49,-3.27,-3.27,0,*58
1505984850.53,64604,14.13,73084.5,-2.49,-3.27,-3.27,0,*5F
1505984851.72,64605,14.13,73060.8,-2.49,-3.27,-3.23,0,*5A
1505984852.92,64606,14.13,73066.3,-2.49,-3.27,-3.27,0,*5D
1505984854.1,64607,14.13,73064.5,-2.49,-3.27,-3.23,0,*58
1505984855.3,64608,14.13,73084.8,-2.45,-3.19,-3.19,0,*5F
1505984856.49,64609,14.13,73070.0,-2.49,-3.15,-3.15,0,*52
1505984857.67,64610,14.13,73074.3,-2.49,-3.27,-3.23,0,*5E
1505984858.86,64611,14.13,73076.3,-2.49,-3.23,-3.15,0,*5E
1505984860.05,64612,14.13,73076.8,-2.49,-3.15,-3.15,0,*58
1505984861.23,64613,14.13,73074.8,-2.49,-3.23,-3.23,0,*59
1505984862.42,64614,14.13,73046.3,-2.49,-3.15,-3.15,0,*5E
1505984863.62,64615,14.13,73078.8,-2.45,-3.11,-3.11,0,*53
1505984864.81,64616,14.13,73070.5,-2.45,-3.11,-3.11,0,*50
1505984866.0,64617,14.13,73052.8,-2.45,-3.11,-3.19,0,*59
1505984867.18,64618,14.13,73072.0,-2.45,-3.23,-3.23,0,*5E
1505984868.38,64619,14.13,73072.5,-2.49,-3.27,-3.27,0,*53
1505984869.58,64620,14.13,73066.3,-2.49,-3.27,-3.27,0,*59
1505984870.78,64621,14.13,73058.3,-2.49,-3.27,-3.27,0,*58
1505984871.97,64622,14.13,73086.3,-2.43,-3.19,-3.19,0,*51
1505984873.17,64623,14.13,73064.8,-2.43,-3.19,-3.19,0,*50
1505984874.35,64624,14.13,73046.3,-2.45,-3.23,-3.23,0,*51
1505984875.54,64625,14.13,73072.5,-2.45,-3.19,-3.23,0,*59
1505984876.73,64626,14.13,73066.3,-2.45,-3.35,-3.23,0,*54
1505984877.93,64627,14.13,73068.3,-2.45,-3.27,-3.27,0,*52
1505984879.14,64628,14.13,73074.5,-2.45,-3.27,-3.27,0,*5D
1505984880.33,64629,14.13,73078.8,-2.49,-3.31,-3.27,0,*57
1505984881.57,64630,14.13,73078.3,-2.49,-3.51,-3.51,0,*58
1505984882.81,64631,14.13,73082.8,-2.49,-3.55,-3.55,0,*59
1505984884.05,64632,14.13,73076.5,-2.51,-3.39,-3.43,0,*5E
1505984885.24,64633,14.13,73092.5,-2.49,-3.31,-3.31,0,*5B
1505984886.43,64634,14.13,73092.3,-2.49,-3.31,-3.31,0,*5C
1505984887.62,64635,14.13,73084.5,-2.49,-3.39,-3.31,0,*55
1505984888.81,64636,14.13,73088.5,-2.49,-3.39,-3.31,0,*56
1505984890.0,64637,14.13,73064.8,-2.49,-3.39,-3.31,0,*57
1505984891.2,64638,14.13,73088.3,-2.49,-3.31,-3.39,0,*58
1505984892.39,64639,14.13,73116.8,-2.49,-3.39,-3.39,0,*51
1505984893.58,64640,14.13,73120.8,-2.49,-3.31,-3.31,0,*5F
1505984894.78,64641,14.13,73076.8,-2.49,-3.39,-3.39,0,*5E
1505984896.02,64642,14.13,73076.0,-2.51,-3.39,-3.43,0,*59
1505984897.24,64643,14.13,73098.3,-2.51,-3.39,-3.31,0,*5D
1505984898.43,64644,14.19,73110.5,-2.49,-3.39,-3.31,0,*53
1505984899.65,64645,14.13,73104.8,-2.51,-3.39,-3.39,0,*53